Location: Newark
(48.1500°N, 2.9667°W)
Time: 17:07:37
(UTC+00:00)

A-11 Canister half - All Passes

Search period start: 29 January 2020 00:00
Search period end: 08 February 2020 00:00
Orbit: 1517 x 1683 km, 47.2° (Epoch: 28 January)

Date Brightness Start Highest point End Pass type
(mag) Time Alt. Az. Time Alt. Az. Time Alt. Az.
29 Jan - 01:19:22 10° W 01:28:47 85° S 01:38:04 10° E visible
29 Jan - 03:24:20 10° WNW 03:33:32 71° SSW 03:42:45 10° ESE visible
29 Jan - 05:29:28 10° WNW 05:37:24 33° SW 05:45:23 10° SSE visible
29 Jan - 20:50:55 10° S 20:57:51 23° SE 21:04:38 10° E visible
29 Jan - 22:52:05 10° SW 23:01:18 58° SSE 23:10:19 10° ENE night (unlit)
30 Jan - 00:56:26 10° W 01:05:52 85° S 01:15:10 10° E visible
30 Jan - 03:01:25 10° W 03:10:40 72° SSW 03:19:53 10° ESE visible
30 Jan - 05:06:31 10° WNW 05:14:35 35° SW 05:22:42 10° SSE visible
30 Jan - 20:28:22 10° S 20:35:02 22° SE 20:41:35 10° E visible
30 Jan - 22:29:14 10° SW 22:38:26 56° SSE 22:47:25 10° ENE visible
31 Jan - 00:33:31 10° W 00:42:58 84° S 00:52:15 10° E night (unlit)
31 Jan - 02:38:30 10° W 02:47:46 74° SSW 02:57:00 10° ESE visible
31 Jan - 04:43:33 10° WNW 04:51:46 37° SW 04:59:59 10° SSE visible
31 Jan - 20:05:51 10° S 20:12:14 20° SE 20:18:30 10° E visible
31 Jan - 22:06:24 10° SW 22:15:35 54° SSE 22:24:31 10° ENE visible
01 Feb - 00:10:36 10° WSW 00:20:04 84° S 00:29:21 10° E night (unlit)
01 Feb - 02:15:35 10° W 02:24:54 76° SSW 02:34:07 10° ESE visible
01 Feb - 04:20:37 10° WNW 04:28:56 39° SW 04:37:17 10° SSE visible
01 Feb - 06:30:11 10° WSW 06:31:40 10° WSW 06:33:08 10° SW visible
01 Feb - 19:43:23 10° SSE 19:49:27 19° SE 19:55:24 10° E visible
01 Feb - 21:43:35 10° SW 21:52:43 52° SSE 22:01:37 10° ENE visible
01 Feb - 23:47:40 10° WSW 23:57:09 83° S 00:06:27 10° E night (unlit)
02 Feb - 01:52:40 10° W 02:02:00 77° SSW 02:11:14 10° ESE visible
02 Feb - 03:57:40 10° WNW 04:06:07 41° SW 04:14:33 10° SSE visible
02 Feb - 06:06:05 10° WSW 06:08:54 12° WSW 06:11:43 10° SW visible
02 Feb - 19:20:57 10° SSE 19:26:39 17° SE 19:32:15 10° E visible
02 Feb - 21:20:45 10° SW 21:29:51 50° SSE 21:38:42 10° ENE visible
02 Feb - 23:24:44 10° WSW 23:34:15 82° S 23:43:33 10° E visible
03 Feb - 01:29:44 10° W 01:39:06 79° SSW 01:48:21 10° ESE visible
03 Feb - 03:34:44 10° WNW 03:43:17 43° SW 03:51:48 10° SSE visible
03 Feb - 05:42:30 10° W 05:46:08 13° SW 05:49:48 10° SSW visible
03 Feb - 18:58:34 10° SSE 19:03:52 16° SE 19:09:04 10° E visible
03 Feb - 20:57:56 10° SW 21:07:00 48° SE 21:15:48 10° ENE visible
03 Feb - 23:01:48 10° WSW 23:11:21 81° SSE 23:20:39 10° E visible
04 Feb - 01:06:48 10° W 01:16:13 80° SSW 01:25:28 10° ESE night (unlit)
04 Feb - 03:11:48 10° WNW 03:20:27 45° SW 03:29:03 10° SSE visible
04 Feb - 05:19:06 10° W 05:23:23 14° SW 05:27:40 10° SSW visible
04 Feb - 18:36:16 10° SSE 18:41:05 15° SE 18:45:50 10° E visible
04 Feb - 20:35:08 10° SSW 20:44:08 46° SE 20:52:54 10° ENE visible
04 Feb - 22:38:52 10° WSW 22:48:27 80° SSE 22:57:45 10° E visible
05 Feb - 00:43:52 10° W 00:53:19 81° SSW 01:02:35 10° ESE night (unlit)
05 Feb - 02:48:52 10° WNW 02:57:37 47° SW 03:06:17 10° SE visible
05 Feb - 04:55:47 10° W 05:00:36 15° SW 05:05:27 10° SSW visible
05 Feb - 18:14:03 10° SSE 18:18:18 14° SE 18:22:29 10° E visible
05 Feb - 20:12:20 10° SSW 20:21:17 44° SE 20:29:58 10° ENE visible
05 Feb - 22:15:58 10° WSW 22:25:32 79° SSE 22:34:51 10° E visible
06 Feb - 00:20:57 10° W 00:30:25 82° S 00:39:41 10° ESE night (unlit)
06 Feb - 02:25:56 10° WNW 02:34:46 49° SSW 02:43:30 10° SE visible
06 Feb - 04:32:33 10° W 04:37:51 17° SW 04:43:08 10° SSW visible
06 Feb - 17:51:58 10° SE 17:55:31 12° ESE 17:59:01 10° ESE visible
06 Feb - 19:49:34 10° SSW 19:58:26 42° SE 20:07:03 10° ENE visible
06 Feb - 21:53:02 10° WSW 22:02:38 77° SSE 22:11:58 10° E visible
06 Feb - 23:58:01 10° W 00:07:31 83° S 00:16:48 10° ESE visible
07 Feb - 02:03:00 10° WNW 02:11:55 51° SSW 02:20:44 10° SE night (unlit)
07 Feb - 04:09:22 10° W 04:15:04 18° SW 04:20:45 10° SSW visible
07 Feb - 17:30:08 10° SE 17:32:44 11° ESE 17:35:19 10° ESE daylight
07 Feb - 19:26:48 10° SSW 19:35:35 40° SE 19:44:08 10° ENE visible
07 Feb - 21:30:07 10° WSW 21:39:44 76° SSE 21:49:04 10° E visible
07 Feb - 23:35:04 10° W 23:44:37 84° S 23:53:54 10° ESE visible
